OPS 4682 DEB, 38428

Orbit data source: Space-Track

OPS 4682 DEB, 38428 is space debris in LEO originally from a launch on Sat, 03 Apr 1965 UTC launched from the Air Force Western Test Range (AFWTR). Debris objects in space refer to the collection of defunct objects orbiting the Earth. Examples of debris include non-operational satellites, rocket bodies, and fragments generated from explosions, collisions, or faulty payload assembly.

Loading next visibility...
Identifier
38428, 1965-027EH
Orbit
LEO
Country
Flag of USUS
Related business
Manufacturer
Unknown
Mission
Spacecraft
Bus & Motor
Unknown
Mass
Unknown
Launch date (UTC)
1965-04-03 (61 years ago)
Launch vehicle
Unknown
Launch site
Air Force Western Test Range (AFWTR)
Object type
Payload
Rocket body
Debris
Shape & HBR
Unknown shape, 0.1 m
Radar Cross Section
Medium (>0.1 m² and <1 m²)

Expand to show TLE details & history
Last TLE update: 2 days ago

TLE from 2 days ago
0 OPS 4682 DEB
1 38428U 65027EH  26148.38144008  .00000811  00000-0  27547-2 0  9991
2 38428  90.2505  12.9142 0045026 108.0073 252.5962 12.97495945595345
Epoch: 2026-05-28T09:09Z
TLE epoch observation values (Epoch: 2026-05-28T09:09:16.422Z)
Latitude
-0.00004°
Longitude
-10.33121°
Altitude
1,285.239 km
Speed
7.208 km/s
True Right ascension
00h 51m 39s
True Declination
0° 00' 00"
Sunlit
Object was in daylight at epoch
Visualization orbit readout
Latitude
Unknown
Longitude
Unknown
Altitude
Unknown
Speed
Unknown
Apparent Right ascension
Unknown
Apparent Declination
Unknown
Sunlit
N/A
Visualization observer readout
Local Sidereal Time
22:05:51
Azimuth
Unknown
Elevation
Unknown
Doppler factor
Unknown
Orbital elements
Apogee altitude
1,303.476 km
Perigee altitude
1,234.612 km
Semi-major axis
7,647.181 km
Eccentricity
0.0045
Inclination
90.2505°
RAAN
12.9142°
Arg. of periapsis
108.0073°
True anomaly
252.10469°
Mean anomaly
252.5962°
Eccentric anomaly
252.35036°
Mean motion
3.24557 °/min
Orbital period
110.92 mins
BSTAR
0.0027547
Loading maneuver chart data...
Computing Atmospheric mass density...
Loading historical data...
Loading historical data...
Loading historical data...
Loading historical data...
Loading historical data...
Loading historical data...
Loading historical data...

Documentation

Showing up to 5 results
|